{"data":{"norad_id":62097,"intl_designator":"2024-220K","name":"STARLINK-11367 [DTC]","alt_names":[],"object_type":"PAYLOAD","status":"ACTIVE","operator":null,"country":"US","launch_date":"2024-11-25","launch_site_code":"AFETR","launch_vehicle":null,"mission":null,"orbit_class":"UNKNOWN","rcs_meters":null,"size_class":null,"mass_kg":null,"dimensions":null,"purposes":["comms"],"wikipedia_slug":null,"has_3d_model":false,"image_url":null,"decayed_at":null,"tle_current":{"epoch":"2026-05-24T20:15:55.842912Z","epoch_age_seconds":95245,"freshness":"FRESH","line1":"1 62097U 24220K   26144.84439633  .00230011  00000+0  17426-2 0  9999","line2":"2 62097  43.0001 303.7425 0001401 283.2186  76.8525 15.70898639 87031","mean_motion":15.70898639,"eccentricity":0.0001401,"inclination_deg":43.0001,"raan_deg":303.7425,"arg_perigee_deg":283.2186,"mean_anomaly_deg":76.8525,"bstar":0.0017426,"rev_number":8703,"period_min":91.66727656704,"perigee_km":355.38396707405,"apogee_km":357.27096401729,"semimajor_km":6734.4644655457,"source":"CELESTRAK","updated_at":"2026-05-25T13:38:19.558853Z"}}}